EW2348 Weather Reports


Display with metric or nautical units.
time (UTC)temp
F
wind
direction
speed
MPH
gust
MPH
rain 1hr
in
rain 24hr
in
rain mn
in
humidity
%
barometer
mb
20150426024742 45 304 4.0 11.0 0.00 0.87 0.87 97 993.6
20150426024643 45 298 5.0 11.0 0.00 0.87 0.87 97 993.5
20150426024543 45 297 5.0 11.0 0.00 0.87 0.87 97 993.7
20150426024342 45 302 5.0 11.0 0.00 0.87 0.87 97 993.4
20150426024143 45 286 4.0 11.0 0.00 0.87 0.87 97 993.5
20150426023942 45 291 3.0 11.0 0.00 0.87 0.87 97 993.5
20150426023642 44 293 3.0 11.0 0.00 0.87 0.87 98 993.2
20150426023542 44 291 3.0 11.0 0.00 0.87 0.87 98 993.3
20150426023242 44 298 3.0 11.0 0.00 0.87 0.87 98 993.2
20150426023042 44 293 5.0 11.0 0.00 0.87 0.87 98 993.1
20150426022642 44 284 3.0 11.0 0.00 0.87 0.87 98 993.1
20150426022542 44 286 3.0 11.0 0.00 0.87 0.87 98 993.1
20150426022442 44 280 4.0 11.0 0.00 0.87 0.87 98 993.1
20150426022342 44 276 5.0 11.0 0.00 0.87 0.87 98 993.2
20150426022142 44 276 5.0 13.0 0.00 0.87 0.87 98 992.8
20150426021842 44 285 6.0 13.0 0.00 0.87 0.87 98 992.7
20150426021442 44 267 3.0 20.0 0.00 0.87 0.87 98 992.4
20150426021143 44 267 7.0 20.0 0.00 0.87 0.87 98 992.6
20150426021042 44 262 6.0 20.0 0.00 0.87 0.87 98 992.5
20150426020742 44 268 11.0 20.0 0.00 0.87 0.87 98 992.7
20150426020342 44 270 5.0 11.0 0.00 0.87 0.87 98 992.8
20150426020242 44 268 5.0 11.0 0.00 0.87 0.87 98 992.7
20150426015942 44 276 5.0 11.0 0.00 0.87 0.87 98 992.8
20150426015842 44 269 3.0 11.0 0.00 0.87 0.87 98 993.0
20150426015742 44 269 5.0 11.0 0.00 0.87 0.87 98 993.1
20150426015643 44 267 6.0 11.0 0.00 0.87 0.87 98 993.0
20150426015542 44 270 7.0 11.0 0.00 0.87 0.87 98 992.9
20150426015342 44 270 6.0 11.0 0.00 0.87 0.87 98 993.1
20150426015242 44 272 4.0 11.0 0.00 0.87 0.87 98 992.9
20150426015143 44 275 5.0 11.0 0.00 0.87 0.87 98 993.0
20150426014942 44 276 6.0 11.0 0.00 0.87 0.87 98 992.7
20150426014643 44 293 5.0 10.0 0.00 0.87 0.87 98 992.8
20150426014543 44 296 9.0 10.0 0.00 0.87 0.87 98 992.6
20150426014143 44 315 6.0 11.0 0.00 0.87 0.87 98 992.7
20150426013942 44 306 4.0 11.0 0.00 0.87 0.87 98 992.8
20150426013842 44 311 5.0 11.0 0.00 0.87 0.87 98 992.9
20150426013643 44 310 6.0 11.0 0.00 0.87 0.87 98 992.9
20150426013542 44 314 5.0 11.0 0.00 0.87 0.87 98 993.0
20150426013442 44 313 5.0 9.0 0.00 0.87 0.87 98 993.1
20150426013342 44 313 5.0 9.0 0.00 0.87 0.87 98 993.1
20150426013242 44 318 6.0 9.0 0.00 0.87 0.87 98 993.3
20150426013143 44 317 5.0 9.0 0.00 0.87 0.87 98 993.3
20150426013042 44 320 4.0 9.0 0.00 0.87 0.87 98 993.5
20150426012942 44 330 5.0 9.0 0.00 0.87 0.87 98 993.6
20150426012842 44 325 5.0 9.0 0.00 0.87 0.87 98 993.5
20150426012742 44 322 6.0 9.0 0.00 0.87 0.87 98 993.5
20150426012543 44 293 3.0 7.0 0.00 0.87 0.87 98 993.5
20150426012142 44 237 2.0 5.0 0.00 0.87 0.87 98 993.8
20150426011842 44 245 3.0 8.0 0.00 0.87 0.87 98 994.0
20150426011742 44 313 2.0 8.0 0.00 0.87 0.87 98 993.8
20150426011542 44 302 2.0 13.0 0.00 0.87 0.87 98 994.0
20150426011242 44 295 1.0 13.0 0.00 0.87 0.87 98 993.7
20150426010942 44 313 4.0 13.0 0.00 0.87 0.87 98 993.2
20150426010842 44 310 5.0 13.0 0.00 0.87 0.87 98 993.3
20150426010742 44 308 5.0 16.0 0.00 0.87 0.87 98 993.1
20150426010642 44 304 5.0 16.0 0.00 0.87 0.87 98 992.9
20150426010542 44 310 9.0 16.0 0.00 0.87 0.87 98 993.0
20150426010442 44 314 7.0 16.0 0.00 0.87 0.87 98 993.0
20150426010342 44 310 7.0 16.0 0.00 0.87 0.87 98 992.8
20150426010243 44 312 5.0 16.0 0.00 0.87 0.87 98 992.6
20150426010142 44 310 5.0 16.0 0.00 0.87 0.87 98 992.7
20150426010042 44 300 7.0 16.0 0.00 0.87 0.87 98 992.5
20150426005942 44 292 4.0 16.0 0.00 0.87 0.87 98 992.5
20150426005842 44 298 9.0 16.0 0.00 0.87 0.87 98 992.6
20150426005742 44 290 7.0 15.0 0.00 0.87 0.87 98 992.6
20150426005642 44 287 8.0 15.0 0.00 0.87 0.87 98 992.6
20150426005542 44 285 5.0 15.0 0.00 0.87 0.87 98 992.4
20150426005343 44 279 5.0 15.0 0.00 0.87 0.87 98 992.6
20150426005142 44 278 5.0 15.0 0.00 0.87 0.87 98 992.6
20150426005042 44 282 4.0 15.0 0.00 0.87 0.87 98 992.5
20150426004942 44 277 6.0 13.0 0.00 0.87 0.87 98 992.5
20150426004642 44 282 7.0 13.0 0.00 0.87 0.87 98 992.4
20150426004542 44 285 6.0 13.0 0.00 0.87 0.87 98 992.5
20150426004442 44 292 7.0 13.0 0.00 0.87 0.87 98 992.3
20150426004243 44 301 3.0 13.0 0.00 0.87 0.87 98 992.7
20150426004142 44 307 7.0 13.0 0.00 0.87 0.87 98 992.5
20150426004042 44 310 8.0 13.0 0.00 0.87 0.87 98 992.7
20150426003642 44 314 4.0 8.0 0.00 0.87 0.87 98 992.6
20150426003042 44 270 3.0 11.0 0.00 0.87 0.87 98 992.5
20150426002942 44 270 3.0 11.0 0.00 0.87 0.87 98 992.6
20150426002743 44 269 5.0 11.0 0.00 0.87 0.87 98 992.6
20150426002642 44 279 5.0 11.0 0.00 0.87 0.87 98 992.5
20150426002342 44 270 5.0 13.0 0.00 0.87 0.87 98 992.6
20150426002242 44 267 5.0 13.0 0.00 0.87 0.87 98 992.6
20150426002042 44 275 6.0 13.0 0.00 0.87 0.87 98 992.7
20150426001942 44 280 3.0 13.0 0.00 0.87 0.87 98 992.7
20150426001642 44 282 5.0 14.0 0.00 0.87 0.87 98 992.7
20150426001542 44 282 6.0 14.0 0.00 0.87 0.87 98 992.7
20150426001442 44 292 8.0 14.0 0.00 0.87 0.87 98 992.5
20150426001343 44 293 8.0 14.0 0.00 0.87 0.87 98 992.8
20150426001242 44 298 7.0 14.0 0.00 0.87 0.87 98 992.8
20150426001142 44 303 8.0 14.0 0.00 0.87 0.87 98 992.5
20150426000942 44 304 5.0 14.0 0.00 0.87 0.87 98 992.5
20150426000842 44 304 7.0 14.0 0.00 0.87 0.87 98 992.8
20150426000742 140 306 5.0 14.0 0.00 0.87 0.87 98 992.7
20150426000642 44 307 7.0 11.0 0.00 0.87 0.87 98 992.8
20150426000442 44 306 6.0 11.0 0.00 0.87 0.87 98 992.8
20150426000343 44 303 6.0 11.0 0.00 0.87 0.87 98 992.9
20150426000042 44 296 6.0 11.0 0.00 0.87 0.87 98 993.0
20150425235942 44 287 6.0 11.0 0.00 0.87 0.87 98 993.1
20150425235842 44 288 7.0 10.0 0.00 0.87 0.87 98 993.1
20150425235742 44 285 5.0 7.0 0.00 0.87 0.87 98 993.2
20150425235642 44 280 2.0 7.0 0.00 0.87 0.87 98 993.1
20150425235542 44 279 5.0 7.0 0.00 0.87 0.87 98 993.2
20150425235342 44 283 5.0 6.0 0.00 0.87 0.87 98 993.2
20150425235042 44 277 3.0 6.0 0.00 0.87 0.87 98 993.3
20150425234942 44 283 3.0 7.0 0.00 0.87 0.87 98 993.2
20150425234542 44 273 3.0 7.0 0.00 0.87 0.87 98 993.4
20150425234442 44 273 2.0 7.0 0.00 0.87 0.87 98 993.3
20150425234243 44 277 1.0 7.0 0.00 0.87 0.87 98 993.4
20150425233942 44 281 5.0 7.0 0.00 0.87 0.87 98 993.4
20150425233842 44 277 3.0 7.0 0.00 0.87 0.87 98 993.3
20150425233747 44 281 3.0 7.0 0.00 0.87 0.87 98 993.4
20150425233542 44 286 3.0 7.0 0.00 0.87 0.87 98 993.4
20150425233442 44 290 4.0 8.0 0.00 0.87 0.87 98 993.2
20150425233242 44 293 3.0 8.0 0.00 0.87 0.87 98 993.3
20150425233042 45 276 5.0 8.0 0.00 0.87 0.87 97 993.3
20150425232942 45 274 3.0 8.0 0.00 0.87 0.87 97 993.4
20150425232842 44 282 1.0 8.0 0.01 0.87 0.87 98 993.3
20150425232643 44 277 3.0 11.0 0.01 0.87 0.87 98 993.4
20150425232442 44 280 6.0 11.0 0.01 0.87 0.87 98 993.1
20150425232142 44 291 5.0 11.0 0.01 0.87 0.87 98 993.3
20150425232042 44 296 2.0 11.0 0.01 0.87 0.87 98 993.0
20150425231942 44 299 5.0 11.0 0.01 0.87 0.87 98 993.1
20150425231742 44 300 4.0 9.0 0.01 0.87 0.87 98 993.1
20150425231543 45 302 3.0 9.0 0.01 0.87 0.87 97 993.2
20150425231442 44 296 4.0 9.0 0.01 0.87 0.87 98 993.2
20150425231242 44 293 5.0 9.0 0.01 0.87 0.87 98 993.1
20150425231043 44 298 2.0 9.0 0.01 0.87 0.87 98 993.4
20150425230942 44 298 5.0 9.0 0.01 0.87 0.87 98 993.2
20150425230842 44 303 6.0 9.0 0.01 0.87 0.87 98 993.2
20150425230742 44 305 1.0 5.0 0.01 0.87 0.87 98 993.3
20150425230543 44 304 3.0 6.0 0.01 0.87 0.87 98 993.3
20150425230442 44 314 2.0 7.0 0.01 0.87 0.87 98 993.2
20150425230142 44 314 3.0 7.0 0.01 0.87 0.87 98 993.4
20150425230041 44 316 3.0 7.0 0.01 0.87 0.87 98 993.1
20150425225842 44 318 3.0 7.0 0.01 0.87 0.87 98 993.1
20150425225742 44 316 3.0 7.0 0.01 0.87 0.87 98 993.1
20150425225642 44 323 3.0 7.0 0.01 0.87 0.87 98 993.2
20150425225542 44 323 4.0 8.0 0.01 0.87 0.87 98 993.3
20150425225442 44 314 5.0 8.0 0.01 0.87 0.87 98 993.2
20150425225242 44 315 3.0 8.0 0.01 0.87 0.87 98 993.2
20150425225142 44 315 4.0 8.0 0.01 0.87 0.87 98 993.2
20150425225042 44 306 4.0 8.0 0.01 0.87 0.87 98 993.0
20150425224942 44 300 5.0 8.0 0.01 0.87 0.87 98 993.0
20150425224843 44 299 3.0 8.0 0.01 0.87 0.87 98 993.0
20150425224642 44 294 4.0 8.0 0.01 0.87 0.87 98 993.0
20150425224042 44 315 5.0 10.0 0.01 0.87 0.87 98 992.9
20150425223842 44 320 6.0 10.0 0.01 0.87 0.87 98 993.1
20150425223743 44 326 3.0 10.0 0.01 0.87 0.87 98 993.1
20150425223442 44 330 4.0 10.0 0.01 0.87 0.87 98 993.1
20150425223243 44 313 5.0 10.0 0.01 0.87 0.87 98 993.1
20150425223142 44 308 5.0 7.0 0.01 0.87 0.87 98 993.4
20150425223042 43 305 3.0 7.0 0.01 0.87 0.87 98 993.6
20150425222942 43 308 4.0 7.0 0.00 0.86 0.86 98 993.8
20150425222842 43 307 3.0 7.0 0.00 0.86 0.86 98 993.9
20150425222542 43 285 2.0 8.0 0.00 0.86 0.86 98 993.8
20150425222342 43 288 3.0 8.0 0.00 0.86 0.86 98 993.6
20150425222242 43 291 3.0 8.0 0.00 0.86 0.86 98 993.7
20150425222042 43 282 5.0 8.0 0.00 0.86 0.86 98 993.7
20150425221942 43 282 3.0 8.0 0.00 0.86 0.86 98 993.7
20150425221742 43 281 5.0 8.0 0.00 0.86 0.86 98 994.1
20150425221542 43 270 1.0 8.0 0.00 0.86 0.86 98 994.3
20150425221442 43 250 1.0 8.0 0.00 0.86 0.86 98 994.2
20150425221243 43 220 1.0 8.0 0.00 0.86 0.86 98 994.1
20150425221142 43 214 1.0 8.0 0.00 0.86 0.86 98 993.8
20150425221042 43 206 5.0 8.0 0.00 0.86 0.86 98 993.8
20150425220842 43 194 6.0 8.0 0.00 0.86 0.86 98 993.6
20150425220742 43 192 3.0 7.0 0.00 0.86 0.86 98 993.7
20150425220642 43 198 5.0 7.0 0.00 0.86 0.86 98 993.8
20150425220442 43 218 5.0 7.0 0.00 0.86 0.86 98 993.8
20150425220342 43 235 5.0 9.0 0.00 0.86 0.86 98 993.8
20150425220243 43 249 5.0 9.0 0.01 0.86 0.86 98 993.8
20150425220142 43 252 5.0 9.0 0.01 0.86 0.86 98 993.6
20150425220042 43 264 5.0 9.0 0.01 0.86 0.86 98 993.6
20150425215942 43 271 5.0 9.0 0.01 0.86 0.86 98 993.5
20150425215742 43 269 5.0 9.0 0.02 0.86 0.86 98 993.5
20150425215642 43 279 5.0 9.0 0.02 0.86 0.86 98 993.5
20150425215542 43 276 5.0 9.0 0.02 0.86 0.86 98 993.5
20150425215442 43 280 5.0 9.0 0.02 0.86 0.86 98 993.5
20150425215342 43 283 5.0 9.0 0.02 0.86 0.86 98 993.3
20150425215142 43 298 3.0 9.0 0.02 0.86 0.86 98 993.2
20150425215042 43 294 3.0 9.0 0.02 0.86 0.86 98 993.2
20150425214843 43 304 4.0 11.0 0.02 0.86 0.86 98 993.3
20150425214742 43 307 4.0 11.0 0.02 0.86 0.86 98 993.4
20150425214642 43 298 5.0 11.0 0.02 0.86 0.86 98 993.3
20150425214443 43 299 7.0 11.0 0.02 0.86 0.86 98 993.3
20150425214342 43 296 5.0 11.0 0.02 0.86 0.86 98 993.3
20150425214242 43 296 4.0 11.0 0.02 0.86 0.86 98 993.2
20150425214042 43 303 5.0 11.0 0.04 0.86 0.86 98 993.3
20150425213941 43 302 7.0 11.0 0.04 0.86 0.86 98 993.1
20150425213742 43 300 5.0 9.0 0.04 0.86 0.86 98 993.3
20150425213642 43 306 5.0 9.0 0.04 0.86 0.86 98 993.5
20150425213542 43 302 3.0 9.0 0.04 0.86 0.86 98 993.4
20150425213242 43 289 3.0 8.0 0.04 0.86 0.86 98 993.6
20150425213142 43 292 3.0 11.0 0.04 0.86 0.86 98 993.5
20150425212942 43 296 4.0 11.0 0.04 0.86 0.86 98 993.6
20150425212841 43 298 5.0 11.0 0.04 0.86 0.86 98 993.6
20150425212742 43 300 5.0 11.0 0.04 0.86 0.86 98 993.6
20150425212642 43 298 4.0 11.0 0.05 0.86 0.86 98 993.4
20150425212542 43 297 5.0 11.0 0.05 0.86 0.86 98 993.6
20150425212442 43 297 3.0 11.0 0.05 0.86 0.86 99 993.6
20150425212249 43 305 5.0 11.0 0.05 0.86 0.86 98 993.6
20150425212142 43 307 4.0 11.0 0.05 0.86 0.86 98 993.5
20150425212042 43 308 3.0 9.0 0.05 0.86 0.86 98 993.4
20150425211942 43 306 3.0 9.0 0.05 0.86 0.86 98 993.5
20150425211842 43 302 4.0 10.0 0.05 0.86 0.86 99 993.5
20150425211742 43 289 4.0 10.0 0.05 0.86 0.86 99 993.7
20150425211642 43 289 5.0 10.0 0.05 0.86 0.86 99 993.8
20150425211542 43 289 6.0 10.0 0.05 0.86 0.86 98 993.7
20150425211442 43 293 3.0 11.0 0.05 0.86 0.86 98 993.7
20150425211342 43 299 4.0 11.0 0.05 0.86 0.86 98 993.7
20150425211242 43 289 5.0 11.0 0.05 0.86 0.86 98 993.6
20150425211042 43 275 3.0 11.0 0.05 0.86 0.86 99 993.6
20150425210942 43 276 5.0 11.0 0.05 0.86 0.86 99 993.7
20150425210243 43 281 3.0 11.0 0.05 0.85 0.85 98 994.0
20150425210142 43 281 3.0 11.0 0.05 0.85 0.85 98 994.2
20150425205842 43 287 5.0 11.0 0.04 0.84 0.84 98 994.2
20150425205742 43 287 4.0 11.0 0.04 0.84 0.84 98 994.2
20150425205442 43 279 5.0 13.0 0.05 0.84 0.84 98 994.3
20150425205342 43 280 3.0 13.0 0.05 0.84 0.84 98 994.3
20150425205042 43 283 4.0 13.0 0.07 0.84 0.84 98 994.4
20150425204842 43 275 5.0 13.0 0.08 0.84 0.84 98 994.4
20150425204742 43 271 5.0 13.0 0.08 0.84 0.84 98 994.4
20150425204642 44 271 7.0 13.0 0.08 0.84 0.84 98 994.5
20150425204542 44 273 5.0 11.0 0.08 0.84 0.84 98 994.7
20150425204042 43 274 4.0 10.0 0.08 0.83 0.83 98 994.6
20150425203942 43 276 5.0 10.0 0.08 0.83 0.83 98 994.8
20150425203742 44 268 7.0 10.0 0.08 0.83 0.83 98 994.6
20150425203643 44 258 3.0 9.0 0.08 0.83 0.83 98 994.6
20150425203542 44 258 3.0 9.0 0.08 0.83 0.83 98 994.6
20150425203442 44 258 3.0 9.0 0.08 0.83 0.83 98 994.5
20150425203242 44 264 3.0 9.0 0.08 0.83 0.83 98 994.6
20150425203143 44 264 4.0 9.0 0.08 0.83 0.83 98 994.6
20150425203042 44 258 1.0 9.0 0.09 0.83 0.83 98 994.5
20150425202942 45 258 5.0 9.0 0.12 0.83 0.83 97 994.5
20150425202643 45 271 3.0 6.0 0.12 0.81 0.81 97 994.4
20150425202542 45 271 3.0 8.0 0.13 0.81 0.81 97 994.4
20150425202442 45 275 2.0 8.0 0.14 0.81 0.81 97 994.4
20150425202342 46 283 2.0 15.0 0.15 0.81 0.81 97 994.4
20150425202142 45 284 3.0 15.0 0.18 0.81 0.81 97 994.2
20150425202042 45 284 3.0 15.0 0.18 0.81 0.81 97 994.1
20150425201642 45 292 3.0 15.0 0.19 0.81 0.81 97 994.1
20150425201542 45 292 5.0 15.0 0.19 0.81 0.81 97 993.8
20150425201442 45 288 7.0 15.0 0.20 0.81 0.81 97 993.8
20150425201342 45 280 3.0 7.0 0.20 0.81 0.81 97 993.8
20150425200842 46 272 4.0 11.0 0.24 0.81 0.81 97 993.2
20150425200743 45 275 3.0 11.0 0.24 0.81 0.81 97 993.5
20150425200642 45 284 5.0 11.0 0.24 0.80 0.80 97 993.4
20150425200443 45 296 5.0 13.0 0.24 0.80 0.80 97 993.4
20150425200342 45 293 5.0 13.0 0.24 0.80 0.80 97 993.4
20150425200242 45 292 5.0 13.0 0.24 0.80 0.80 97 993.4
20150425200142 45 295 5.0 13.0 0.24 0.80 0.80 97 993.5
20150425195942 45 292 5.0 13.0 0.25 0.80 0.80 97 993.3
20150425195842 45 297 5.0 13.0 0.25 0.80 0.80 97 993.2
20150425195742 45 289 7.0 13.0 0.25 0.80 0.80 97 993.3
20150425195642 45 283 6.0 13.0 0.25 0.79 0.79 97 993.0
20150425195442 45 273 6.0 10.0 0.25 0.79 0.79 97 993.3
20150425195342 45 281 5.0 10.0 0.26 0.79 0.79 97 993.4
20150425195242 45 292 6.0 10.0 0.25 0.78 0.78 97 993.4
20150425195142 45 287 5.0 9.0 0.26 0.78 0.78 97 993.3
20150425194842 46 287 3.0 11.0 0.25 0.76 0.76 97 993.2
20150425194742 46 290 3.0 11.0 0.25 0.76 0.76 97 993.3
20150425194542 46 283 3.0 11.0 0.25 0.74 0.74 97 993.4
20150425194442 46 280 2.0 11.0 0.25 0.74 0.74 97 993.3
20150425194342 46 280 5.0 11.0 0.26 0.74 0.74 97 993.2
20150425194043 46 276 3.0 11.0 0.26 0.74 0.74 97 993.3
20150425193943 46 277 6.0 11.0 0.27 0.74 0.74 97 993.3
20150425193842 46 277 5.0 9.0 0.27 0.74 0.74 97 993.3
20150425193642 46 274 5.0 9.0 0.27 0.74 0.74 97 993.2
20150425193542 46 281 5.0 11.0 0.27 0.74 0.74 97 993.2
20150425193342 46 290 5.0 11.0 0.28 0.74 0.74 97 993.2
20150425193243 46 292 3.0 11.0 0.28 0.74 0.74 99 993.2
20150425193142 46 293 1.0 11.0 0.27 0.73 0.73 97 993.2
20150425193042 46 295 2.0 11.0 0.25 0.71 0.71 97 993.3
20150425192942 46 294 2.0 11.0 0.25 0.71 0.71 97 993.3
20150425192842 46 293 1.0 11.0 0.25 0.71 0.71 97 993.3
20150425192742 46 293 2.0 11.0 0.24 0.70 0.70 99 993.4
20150425192642 46 296 5.0 11.0 0.22 0.69 0.69 97 993.3
20150425192542 46 294 7.0 11.0 0.21 0.67 0.67 97 993.4
20150425192042 47 296 3.0 10.0 0.19 0.64 0.64 99 993.4
20150425191942 46 288 3.0 11.0 0.19 0.64 0.64 99 993.2
20150425191842 47 297 2.0 12.0 0.19 0.64 0.64 99 993.2
20150425191742 46 301 4.0 12.0 0.18 0.63 0.63 97 993.4
20150425191542 46 300 3.0 12.0 0.19 0.63 0.63 97 993.2
20150425191242 46 301 3.0 12.0 0.18 0.61 0.61 97 993.3
20150425191143 46 299 5.0 12.0 0.18 0.61 0.61 97 993.4
20150425191043 46 300 5.0 12.0 0.17 0.60 0.60 97 993.4
20150425190942 46 312 7.0 12.0 0.17 0.59 0.59 97 993.4
20150425190742 47 310 5.0 11.0 0.15 0.58 0.58 99 993.6
20150425190642 47 306 3.0 11.0 0.14 0.57 0.57 99 993.4
20150425190442 47 297 4.0 11.0 0.15 0.57 0.57 99 993.5
20150425190342 47 288 3.0 11.0 0.15 0.57 0.57 99 993.6
20150425190141 47 285 3.0 11.0 0.14 0.56 0.56 99 993.5
20150425185942 47 279 3.0 11.0 0.14 0.56 0.56 99 993.2
20150425185842 47 280 6.0 11.0 0.14 0.56 0.56 99 993.2
20150425185641 47 282 6.0 11.0 0.14 0.54 0.54 99 993.2
20150425185342 47 303 5.0 11.0 0.13 0.53 0.53 99 993.3
20150425185244 47 304 5.0 11.0 0.12 0.52 0.52 99 993.4
20150425185142 48 311 4.0 11.0 0.13 0.52 0.52 99 993.2
20150425184942 47 310 5.0 11.0 0.12 0.51 0.51 99 993.4
20150425184842 47 315 5.0 11.0 0.12 0.51 0.51 99 993.2
20150425184641 47 322 5.0 11.0 0.11 0.50 0.50 99 993.2
20150425184342 47 320 6.0 11.0 0.11 0.48 0.48 99 993.2
20150425184242 47 320 4.0 11.0 0.11 0.48 0.48 99 993.2
20150425184141 48 317 3.0 11.0 0.11 0.48 0.48 99 993.4
20150425184042 47 312 5.0 11.0 0.11 0.48 0.48 99 993.4
20150425183942 47 311 6.0 15.0 0.11 0.47 0.47 99 993.3
20150425183842 47 304 6.0 15.0 0.11 0.47 0.47 99 993.1
20150425183742 47 299 4.0 15.0 0.12 0.47 0.47 99 993.3
20150425183641 47 298 6.0 15.0 0.12 0.47 0.47 99 993.2
20150425183542 47 297 7.0 15.0 0.12 0.47 0.47 99 993.3
20150425183342 47 299 5.0 15.0 0.12 0.46 0.46 99 993.3
20150425183242 47 303 5.0 15.0 0.12 0.46 0.46 99 993.4
20150425182842 47 339 6.0 13.0 0.13 0.46 0.46 99 993.2
20150425182742 47 340 5.0 13.0 0.13 0.46 0.46 99 993.5
20150425182641 47 344 3.0 13.0 0.13 0.46 0.46 99 993.5
20150425182542 47 342 3.0 13.0 0.13 0.46 0.46 99 993.4
20150425182442 47 340 3.0 13.0 0.13 0.46 0.46 99 993.6
20150425182242 47 335 4.0 13.0 0.12 0.45 0.45 99 993.4
20150425182142 48 330 4.0 13.0 0.12 0.45 0.45 99 993.6
20150425182042 47 326 7.0 13.0 0.13 0.45 0.45 99 993.5
20150425181942 47 320 5.0 13.0 0.13 0.45 0.45 99 993.5
20150425181842 47 313 7.0 11.0 0.13 0.45 0.45 99 993.5
20150425181742 47 316 4.0 11.0 0.13 0.44 0.44 99 993.7
20150425181641 47 313 3.0 11.0 0.14 0.44 0.44 99 993.7
20150425181542 47 309 3.0 11.0 0.14 0.44 0.44 99 993.5
20150425181141 47 297 4.0 11.0 0.17 0.44 0.44 99 993.5
20150425181042 47 294 5.0 11.0 0.17 0.44 0.44 99 993.4
20150425180842 48 284 5.0 7.0 0.15 0.43 0.43 99 993.5
20150425180642 47 281 3.0 7.0 0.14 0.41 0.41 99 993.7
20150425180441 47 284 3.0 7.0 0.14 0.41 0.41 99 993.9
20150425180342 47 288 3.0 7.0 0.14 0.41 0.41 99 993.7
20150425180242 47 290 3.0 7.0 0.14 0.41 0.41 99 993.9
20150425180142 47 298 3.0 7.0 0.15 0.41 0.41 99 994.0
20150425180042 47 299 3.0 7.0 0.15 0.41 0.41 99 994.0
20150425175842 47 303 5.0 7.0 0.17 0.41 0.41 99 994.2
20150425175742 47 297 3.0 7.0 0.17 0.41 0.41 99 994.2
20150425175541 47 297 4.0 7.0 0.15 0.40 0.40 99 994.3
20150425175442 47 304 3.0 7.0 0.15 0.40 0.40 99 994.2
20150425175242 47 301 5.0 7.0 0.15 0.39 0.39 99 994.4
20150425174942 47 301 2.0 7.0 0.17 0.39 0.39 99 994.7
20150425174742 47 312 3.0 9.0 0.18 0.39 0.39 99 994.6
20150425174641 47 315 1.0 9.0 0.19 0.39 0.39 99 994.8
20150425174542 47 317 3.0 9.0 0.19 0.39 0.39 99 994.8
20150425174342 47 319 2.0 9.0 0.18 0.38 0.38 99 994.9
20150425174242 47 317 3.0 9.0 0.18 0.38 0.38 99 994.8
20150425174042 47 306 4.0 9.0 0.18 0.38 0.38 99 994.7
20150425173942 47 306 4.0 9.0 0.18 0.37 0.37 99 994.8
20150425173842 47 311 5.0 9.0 0.18 0.37 0.37 99 994.8
20150425173742 47 313 3.0 8.0 0.17 0.35 0.35 99 994.8
20150425173542 47 320 1.0 10.0 0.17 0.35 0.35 99 995.1
20150425173442 47 325 3.0 10.0 0.15 0.34 0.34 99 995.0
20150425173141 47 331 2.0 10.0 0.15 0.34 0.34 99 995.2
20150425172842 47 343 4.0 10.0 0.15 0.33 0.33 99 995.1
20150425172742 47 345 5.0 10.0 0.15 0.33 0.33 99 994.8
20150425172642 47 346 7.0 10.0 0.15 0.33 0.33 99 994.9
20150425172542 47 339 6.0 9.0 0.15 0.33 0.33 99 994.9
20150425172442 47 335 2.0 9.0 0.15 0.33 0.33 99 994.8
20150425172342 47 332 2.0 9.0 0.15 0.33 0.33 99 994.7
20150425172242 47 327 1.0 9.0 0.15 0.33 0.33 99 994.7
20150425172041 47 320 5.0 9.0 0.14 0.32 0.32 99 994.6
20150425171942 47 308 3.0 8.0 0.14 0.32 0.32 99 994.7
20150425171842 47 309 4.0 8.0 0.14 0.32 0.32 99 994.6
20150425171542 47 319 3.0 10.0 0.13 0.30 0.30 99 995.0
20150425171342 47 321 2.0 10.0 0.12 0.28 0.28 99 994.8
20150425171042 47 319 5.0 10.0 0.12 0.27 0.27 99 994.9
20150425170743 47 324 4.0 10.0 0.12 0.27 0.27 99 995.0
20150425170642 48 328 6.0 10.0 0.15 0.27 0.27 99 995.2
20150425170442 47 326 3.0 9.0 0.15 0.27 0.27 99 995.1
20150425170242 48 321 2.0 9.0 0.15 0.27 0.27 99 995.2
20150425170142 48 321 2.0 9.0 0.14 0.26 0.26 99 995.2
20150425170042 48 326 1.0 9.0 0.14 0.26 0.26 99 995.1
20150425165942 48 328 3.0 9.0 0.14 0.26 0.26 99 995.4
20150425165842 48 328 3.0 9.0 0.13 0.25 0.25 99 995.2
20150425165742 48 322 4.0 9.0 0.13 0.25 0.25 99 995.1
20150425165642 48 308 7.0 9.0 0.13 0.25 0.25 99 995.2
20150425165541 48 298 3.0 7.0 0.14 0.25 0.25 99 995.4
20150425165442 48 291 3.0 5.0 0.13 0.24 0.24 99 995.5
20150425165341 48 292 3.0 5.0 0.14 0.24 0.24 99 995.5
20150425165242 47 290 4.0 5.0 0.14 0.24 0.24 99 995.5
20150425165142 47 293 2.0 5.0 0.13 0.22 0.22 99 995.7
20150425165042 48 295 2.0 5.0 0.14 0.22 0.22 99 995.8
20150425164942 48 297 1.0 5.0 0.14 0.22 0.22 99 996.0
20150425164842 48 308 1.0 5.0 0.13 0.21 0.21 99 995.7
20150425164742 48 304 2.0 5.0 0.13 0.21 0.21 99 996.0
20150425164543 48 328 3.0 5.0 0.13 0.20 0.20 99 995.7
20150425164442 48 348 2.0 5.0 0.13 0.20 0.20 99 995.9
20150425164242 48 29 3.0 5.0 0.13 0.20 0.20 99 995.9
20150425164042 48 28 1.0 5.0 0.13 0.19 0.19 99 996.3
20150425163942 48 348 2.0 5.0 0.13 0.19 0.19 99 996.1
20150425163842 48 336 2.0 5.0 0.13 0.19 0.19 99 996.2
20150425163742 48 348 3.0 5.0 0.13 0.19 0.19 99 996.1
20150425163641 48 339 1.0 5.0 0.13 0.19 0.19 99 996.1
20150425163542 48 323 1.0 6.0 0.13 0.19 0.19 99 996.0
20150425163442 48 316 2.0 6.0 0.13 0.19 0.19 99 995.7
20150425163342 48 311 1.0 6.0 0.13 0.19 0.19 99 995.7
20150425163242 48 318 1.0 6.0 0.13 0.19 0.19 99 995.7
20150425163142 48 307 1.0 6.0 0.13 0.19 0.19 99 995.7
20150425162942 48 312 2.0 6.0 0.12 0.18 0.18 99 995.6
20150425162842 48 309 2.0 6.0 0.12 0.18 0.18 99 995.7
20150425162742 48 302 3.0 6.0 0.12 0.18 0.18 99 995.8
20150425162442 48 317 3.0 5.0 0.12 0.18 0.18 99 996.0
20150425162141 48 309 2.0 4.0 0.12 0.18 0.18 99 996.1
20150425161842 48 301 1.0 5.0 0.11 0.17 0.17 99 996.3
20150425161742 48 302 1.0 5.0 0.11 0.17 0.17 99 996.1
20150425161542 49 315 1.0 5.0 0.11 0.17 0.17 99 996.3
20150425161442 49 320 1.0 5.0 0.11 0.17 0.17 99 996.4
20150425161342 48 329 1.0 5.0 0.11 0.17 0.17 99 996.3
20150425161242 49 334 1.0 5.0 0.11 0.17 0.17 99 996.2
20150425160942 49 351 3.0 5.0 0.09 0.15 0.15 99 996.3
20150425160841 49 353 2.0 5.0 0.09 0.15 0.15 99 996.5
20150425160342 48 343 3.0 5.0 0.06 0.12 0.12 97 996.5
20150425160242 48 344 3.0 5.0 0.06 0.12 0.12 97 996.4
20150425160142 48 338 3.0 5.0 0.06 0.12 0.12 97 996.4
20150425155742 48 333 3.0 5.0 0.07 0.12 0.12 97 996.7
20150425155242 48 318 1.0 3.0 0.05 0.09 0.09 95 997.1
20150425155141 48 319 0.0 5.0 0.04 0.08 0.08 95 997.0
20150425155041 48 317 1.0 5.0 0.04 0.08 0.08 95 996.9
20150425154942 48 316 1.0 5.0 0.04 0.08 0.08 95 997.1
20150425154742 49 314 2.0 5.0 0.04 0.08 0.08 94 996.8
20150425154641 49 317 1.0 5.0 0.04 0.07 0.07 94 997.0
20150425154546 48 311 2.0 5.0 0.04 0.07 0.07 94 996.6
20150425154441 49 313 2.0 5.0 0.04 0.07 0.07 94 996.8
20150425154341 48 324 1.0 5.0 0.04 0.07 0.07 94 997.0
20150425154242 49 329 2.0 5.0 0.04 0.07 0.07 94 997.1
20150425154142 49 330 1.0 3.0 0.04 0.07 0.07 94 997.0
20150425154042 49 343 0.0 3.0 0.02 0.06 0.06 94 997.0
20150425153841 49 349 1.0 5.0 0.04 0.06 0.06 93 997.0
20150425153642 49 345 1.0 5.0 0.04 0.06 0.06 93 997.2
20150425153542 49 342 1.0 5.0 0.04 0.06 0.06 93 997.1
20150425153342 49 332 1.0 5.0 0.05 0.06 0.06 92 997.0
20150425153241 49 323 1.0 5.0 0.05 0.06 0.06 92 996.9
20150425153042 49 306 2.0 6.0 0.05 0.06 0.06 93 996.9
20150425152742 49 319 2.0 6.0 0.05 0.06 0.06 93 996.8
20150425152641 50 319 1.0 6.0 0.05 0.06 0.06 92 996.6
20150425152542 49 324 1.0 6.0 0.05 0.06 0.06 91 996.6
20150425152442 49 321 1.0 6.0 0.05 0.06 0.06 91 996.5
20150425152342 49 316 3.0 6.0 0.05 0.06 0.06 92 996.5
20150425151942 49 334 3.0 7.0 0.05 0.06 0.06 92 996.7
20150425151842 49 332 2.0 7.0 0.05 0.06 0.06 92 996.4
20150425151742 49 329 3.0 7.0 0.05 0.06 0.06 92 996.5
20150425151641 49 334 4.0 7.0 0.05 0.06 0.06 93 996.4
20150425151541 49 336 2.0 7.0 0.05 0.06 0.06 92 996.3
20150425151443 49 348 1.0 7.0 0.05 0.06 0.06 93 996.3
20150425151242 50 346 4.0 7.0 0.05 0.06 0.06 93 996.4
20150425151142 50 333 2.0 5.0 0.05 0.06 0.06 93 996.3
20150425151042 49 331 2.0 5.0 0.05 0.06 0.06 92 996.6
20150425150942 49 347 3.0 5.0 0.05 0.06 0.06 92 996.4
20150425150842 49 342 3.0 5.0 0.05 0.06 0.06 92 996.3
20150425150742 49 339 3.0 5.0 0.05 0.06 0.06 92 996.7
20150425150642 49 336 2.0 5.0 0.05 0.06 0.06 92 996.5
20150425150542 49 332 2.0 5.0 0.05 0.06 0.06 92 996.6
20150425150441 49 329 3.0 5.0 0.05 0.06 0.06 92 996.8
20150425150342 49 336 3.0 5.0 0.05 0.06 0.06 92 997.0
20150425150142 49 333 1.0 5.0 0.05 0.06 0.06 91 996.8
20150425145941 49 317 4.0 6.0 0.04 0.05 0.05 91 996.9
20150425145841 49 316 3.0 6.0 0.04 0.05 0.05 91 996.8
20150425145742 49 315 2.0 6.0 0.04 0.05 0.05 91 996.8
20150425145542 49 313 1.0 6.0 0.04 0.05 0.05 90 996.7
20150425145442 49 314 0.0 7.0 0.04 0.05 0.05 89 996.7
20150425145341 49 307 1.0 7.0 0.04 0.05 0.05 89 996.7
20150425145241 49 308 1.0 7.0 0.04 0.05 0.05 89 997.0
20150425144942 49 321 4.0 7.0 0.04 0.05 0.05 86 996.9
20150425144741 49 323 3.0 7.0 0.04 0.05 0.05 86 996.8
20150425144542 49 323 3.0 7.0 0.02 0.04 0.04 85 996.8
20150425144442 49 320 3.0 7.0 0.02 0.04 0.04 85 997.0
20150425144341 49 313 3.0 6.0 0.02 0.04 0.04 85 996.8
20150425144241 49 312 1.0 6.0 0.02 0.04 0.04 84 997.0
20150425143641 49 332 1.0 7.0 0.01 0.02 0.02 81 997.0
20150425143241 50 355 1.0 7.0 0.00 0.01 0.01 79 997.2
20150425142742 50 330 4.0 7.0 0.00 0.01 0.01 76 997.3
20150425142541 50 338 2.0 6.0 0.00 0.01 0.01 75 997.3
20150425142342 50 340 3.0 7.0 0.00 0.01 0.01 75 997.3
20150425142042 50 331 1.0 7.0 0.00 0.01 0.01 75 997.3
20150425141642 50 343 3.0 7.0 0.00 0.01 0.01 74 997.6
20150425141542 50 323 5.0 7.0 0.00 0.01 0.01 74 997.7
20150425141442 50 318 1.0 7.0 0.00 0.01 0.01 74 997.7
20150425141342 51 298 3.0 7.0 0.00 0.01 0.01 74 997.6
20150425141141 50 297 3.0 7.0 0.00 0.01 0.01 74 997.5
20150425141042 51 285 1.0 4.0 0.00 0.01 0.01 73 997.7
20150425140942 50 280 2.0 4.0 0.00 0.01 0.01 73 997.8
20150425140842 51 269 2.0 3.0 0.00 0.01 0.01 73 997.8
20150425140741 50 269 1.0 5.0 0.00 0.01 0.01 73 997.9
20150425140642 51 273 2.0 5.0 0.00 0.01 0.01 73 997.8
20150425140542 51 270 2.0 5.0 0.00 0.01 0.01 73 997.8
20150425140442 51 283 2.0 5.0 0.00 0.01 0.01 73 997.8
20150425140142 51 310 2.0 5.0 0.00 0.01 0.01 73 998.0
20150425140042 51 306 2.0 5.0 0.00 0.01 0.01 73 998.0
20150425135942 51 303 2.0 7.0 0.00 0.01 0.01 73 997.8
20150425135741 51 350 3.0 7.0 0.00 0.01 0.01 73 997.9
20150425135442 51 328 1.0 9.0 0.00 0.01 0.01 72 998.1
20150425135342 51 337 2.0 9.0 0.00 0.01 0.01 72 997.7
20150425135141 50 326 3.0 9.0 0.00 0.01 0.01 71 998.0
20150425135041 50 351 5.0 9.0 0.00 0.01 0.01 71 997.6
20150425134942 50 27 3.0 9.0 0.00 0.01 0.01 70 997.8
20150425134842 51 5 5.0 9.0 0.00 0.01 0.01 70 997.6
20150425134641 51 5 5.0 9.0 0.00 0.01 0.01 70 997.6
20150425134541 52 18 1.0 7.0 0.00 0.01 0.01 70 997.8
20150425134242 51 40 2.0 11.0 0.00 0.01 0.01 70 997.7
20150425134142 51 45 4.0 11.0 0.00 0.01 0.01 71 997.8
20150425134041 51 42 4.0 11.0 0.00 0.01 0.01 70 997.8
20150425133941 51 17 3.0 11.0 0.00 0.01 0.01 70 997.8
20150425133842 51 19 4.0 11.0 0.00 0.01 0.01 71 997.8
20150425133742 51 12 3.0 11.0 0.00 0.01 0.01 70 997.7
20150425133642 51 10 3.0 11.0 0.00 0.01 0.01 70 997.7
20150425133541 50 328 5.0 11.0 0.00 0.01 0.01 70 997.8
20150425133441 51 301 5.0 8.0 0.00 0.01 0.01 70 997.8
20150425133342 51 313 3.0 8.0 0.00 0.01 0.01 69 997.5
20150425133242 51 303 3.0 8.0 0.00 0.01 0.01 70 997.8
20150425133142 51 291 2.0 8.0 0.00 0.01 0.01 69 997.8
20150425133041 51 308 2.0 8.0 0.00 0.01 0.01 70 997.8
20150425132941 51 301 3.0 8.0 0.00 0.01 0.01 69 997.8
20150425132742 50 318 2.0 8.0 0.00 0.01 0.01 69 997.7
20150425132542 50 333 5.0 8.0 0.00 0.01 0.01 68 997.7
20150425132441 50 347 5.0 8.0 0.00 0.01 0.01 68 998.0
20150425132042 50 334 4.0 11.0 0.00 0.01 0.01 67 997.7
20150425131941 50 333 4.0 11.0 0.00 0.01 0.01 67 997.8
20150425131842 50 327 4.0 11.0 0.00 0.01 0.01 68 997.8
20150425131642 50 322 2.0 11.0 0.00 0.01 0.01 67 997.8
20150425131541 50 316 4.0 11.0 0.00 0.01 0.01 68 997.8
20150425131342 50 303 6.0 11.0 0.00 0.01 0.01 69 997.8
20150425131242 50 302 6.0 10.0 0.00 0.01 0.01 69 997.6
20150425131142 50 295 4.0 10.0 0.00 0.01 0.01 70 997.9
20150425131041 50 290 5.0 10.0 0.00 0.01 0.01 70 997.9
20150425130941 50 291 5.0 10.0 0.00 0.01 0.01 70 997.9
20150425130841 50 300 6.0 10.0 0.00 0.01 0.01 70 997.9
20150425130542 50 311 2.0 7.0 0.00 0.01 0.01 71 998.1
20150425130442 50 301 1.0 7.0 0.00 0.01 0.01 71 998.0
20150425130341 50 320 3.0 7.0 0.00 0.01 0.01 71 998.1
20150425130242 49 320 5.0 7.0 0.00 0.01 0.01 71 998.1
20150425130142 50 339 3.0 6.0 0.00 0.01 0.01 72 998.1
20150425125941 50 326 2.0 6.0 0.00 0.01 0.01 72 998.2
20150425125841 50 327 1.0 6.0 0.00 0.01 0.01 73 998.3
20150425125741 50 320 3.0 6.0 0.00 0.01 0.01 74 998.2
20150425125542 50 327 3.0 6.0 0.00 0.01 0.01 74 998.3
20150425125242 50 324 3.0 6.0 0.00 0.01 0.01 74 998.3
20150425125142 49 315 2.0 6.0 0.00 0.01 0.01 74 998.2
20150425124942 50 327 1.0 7.0 0.00 0.01 0.01 75 998.4
20150425124841 50 328 1.0 7.0 0.00 0.01 0.01 75 998.4
20150425124742 49 334 3.0 7.0 0.00 0.01 0.01 75 998.5
20150425124642 50 326 3.0 7.0 0.00 0.01 0.01 76 998.5
20150425124441 49 316 1.0 7.0 0.00 0.01 0.01 76 998.5
20150425124241 49 312 1.0 7.0 0.00 0.01 0.01 76 998.8
20150425124142 49 310 2.0 7.0 0.00 0.01 0.01 76 998.7
20150425124042 49 309 5.0 7.0 0.00 0.01 0.01 77 998.7
20150425123542 49 282 2.0 5.0 0.00 0.01 0.01 77 998.9
20150425123442 49 277 3.0 5.0 0.00 0.01 0.01 78 998.7
20150425123341 49 275 2.0 5.0 0.00 0.01 0.01 79 998.6
20150425123242 49 273 3.0 5.0 0.00 0.01 0.01 80 998.7
20150425123142 49 273 1.0 7.0 0.00 0.01 0.01 80 998.7
20150425122841 49 278 2.0 7.0 0.00 0.01 0.01 80 998.8
20150425122741 49 282 2.0 7.0 0.00 0.01 0.01 80 998.9
20150425122442 49 301 2.0 7.0 0.00 0.01 0.01 80 999.2
20150425122142 49 304 1.0 6.0 0.00 0.01 0.01 83 998.9
20150425121942 49 313 1.0 6.0 0.00 0.01 0.01 81 999.1
20150425121841 48 315 2.0 7.0 0.00 0.01 0.01 80 999.1
20150425121742 48 315 2.0 7.0 0.00 0.01 0.01 80 999.0
20150425121642 48 314 1.0 7.0 0.00 0.01 0.01 79 999.2
20150425121541 48 313 3.0 7.0 0.00 0.01 0.01 79 999.1
20150425121342 48 316 3.0 7.0 0.00 0.01 0.01 78 999.1
20150425121142 48 321 3.0 7.0 0.00 0.01 0.01 78 999.0
20150425121041 48 315 3.0 7.0 0.00 0.01 0.01 78 999.0
20150425120941 48 317 3.0 7.0 0.00 0.01 0.01 78 999.1
20150425120642 48 316 1.0 3.0 0.00 0.01 0.01 77 999.1
20150425120541 48 320 1.0 3.0 0.00 0.01 0.01 77 999.0
20150425120441 48 321 1.0 3.0 0.00 0.01 0.01 77 999.0
20150425120341 48 319 1.0 3.0 0.00 0.01 0.01 77 999.1
20150425120042 48 303 1.0 3.0 0.00 0.01 0.01 77 999.4
20150425115841 48 296 1.0 3.0 0.00 0.01 0.01 77 999.6
20150425115742 48 292 1.0 3.0 0.00 0.01 0.01 77 999.6
20150425115642 48 286 1.0 3.0 0.00 0.01 0.01 76 999.6
20150425115541 48 279 1.0 3.0 0.00 0.01 0.01 77 999.7
20150425115442 48 275 1.0 3.0 0.00 0.01 0.01 76 999.4
20150425115342 48 273 2.0 3.0 0.00 0.01 0.01 76 999.5
20150425115242 48 277 1.0 3.0 0.00 0.01 0.01 77 999.7
20150425115141 48 284 1.0 3.0 0.00 0.01 0.01 77 999.4
20150425115042 48 285 2.0 3.0 0.00 0.01 0.01 77 999.4
20150425114942 48 286 1.0 3.0 0.00 0.01 0.01 77 999.5
20150425114742 48 296 1.0 3.0 0.00 0.01 0.01 77 999.4
20150425114641 48 304 0.0 3.0 0.00 0.01 0.01 77 999.6
20150425114541 48 308 1.0 3.0 0.00 0.01 0.01 77 999.5
20150425114442 48 314 1.0 3.0 0.00 0.01 0.01 77 999.5
20150425114242 48 302 2.0 3.0 0.00 0.01 0.01 77 999.4
20150425114141 48 295 1.0 3.0 0.00 0.01 0.01 77 999.6
20150425113941 48 305 0.0 3.0 0.00 0.01 0.01 77 999.4
20150425113841 48 313 1.0 3.0 0.00 0.01 0.01 77 999.6
20150425113642 48 301 0.0 4.0 0.00 0.01 0.01 76 999.6
20150425113542 48 306 0.0 5.0 0.00 0.01 0.01 76 999.7
20150425113442 48 297 1.0 5.0 0.00 0.01 0.01 76 999.4
20150425113342 48 305 1.0 5.0 0.00 0.01 0.01 76 999.4
20150425113242 48 310 1.0 5.0 0.00 0.01 0.01 75 999.4
20150425113041 48 303 2.0 5.0 0.00 0.01 0.01 75 999.3
20150425112942 48 311 2.0 5.0 0.00 0.01 0.01 75 999.3
20150425112742 48 305 2.0 5.0 0.00 0.01 0.01 75 999.0
20150425112642 48 304 3.0 5.0 0.00 0.01 0.01 75 999.0
20150425112541 48 290 3.0 5.0 0.00 0.01 0.01 76 999.2
20150425112441 48 289 1.0 5.0 0.00 0.01 0.01 75 999.1
20150425112342 48 283 2.0 5.0 0.00 0.01 0.01 75 999.0
20150425112242 48 277 1.0 5.0 0.00 0.01 0.01 75 999.0
20150425112141 48 279 2.0 5.0 0.00 0.01 0.01 75 999.0
20150425111842 48 282 1.0 5.0 0.00 0.01 0.01 75 999.2
20150425111641 48 305 2.0 5.0 0.00 0.01 0.01 75 999.3
20150425111541 48 321 1.0 5.0 0.00 0.01 0.01 75 999.3
20150425111442 48 327 1.0 5.0 0.00 0.01 0.01 75 999.2
20150425111342 48 331 2.0 5.0 0.00 0.01 0.01 75 999.3
20150425111241 48 338 3.0 5.0 0.00 0.01 0.01 75 999.4
20150425110942 48 345 2.0 5.0 0.00 0.01 0.01 75 999.4
20150425110442 48 343 2.0 3.0 0.00 0.01 0.01 76 999.3
20150425110342 48 348 2.0 3.0 0.00 0.01 0.01 76 999.2
20150425110141 48 346 1.0 3.0 0.00 0.01 0.01 76 999.3
20150425110041 48 345 1.0 3.0 0.00 0.01 0.01 76 999.3
20150425105942 48 353 1.0 3.0 0.00 0.01 0.01 76 999.1
20150425105842 48 353 2.0 3.0 0.00 0.01 0.01 76 999.1
20150425105541 48 3 1.0 3.0 0.00 0.01 0.01 76 999.2
20150425105441 48 4 1.0 3.0 0.00 0.01 0.01 77 999.2
20150425105342 48 4 1.0 3.0 0.00 0.01 0.01 78 999.3
20150425105242 48 6 0.0 3.0 0.00 0.01 0.01 77 999.3
20150425105142 48 10 2.0 3.0 0.00 0.01 0.01 79 999.4
20150425104942 48 1 0.0 3.0 0.00 0.01 0.01 81 999.4
20150425104842 48 353 0.0 3.0 0.00 0.01 0.01 81 999.4
20150425104742 48 339 1.0 3.0 0.00 0.01 0.01 82 999.4
20150425104541 48 331 0.0 4.0 0.00 0.01 0.01 83 999.4
20150425104442 48 335 0.0 4.0 0.00 0.01 0.01 82 999.2
20150425104342 48 332 1.0 4.0 0.00 0.01 0.01 82 999.3
20150425104241 48 330 0.0 4.0 0.00 0.01 0.01 81 999.1
20150425104141 48 340 0.0 4.0 0.00 0.01 0.01 81 999.3
20150425103942 48 338 1.0 5.0 0.00 0.01 0.01 80 999.3
20150425103841 48 333 1.0 5.0 0.00 0.01 0.01 79 999.3
20150425103741 48 336 2.0 5.0 0.00 0.01 0.01 78 999.3
20150425103641 48 332 3.0 5.0 0.00 0.01 0.01 78 999.2
20150425103442 48 325 1.0 5.0 0.00 0.01 0.01 77 999.3
20150425103342 48 327 0.0 5.0 0.00 0.01 0.01 77 999.3
20150425103042 48 310 2.0 3.0 0.00 0.01 0.01 77 999.2
20150425102942 48 310 3.0 3.0 0.00 0.01 0.01 76 999.2
20150425102842 48 316 2.0 3.0 0.00 0.01 0.01 75 999.3
20150425102741 48 316 2.0 3.0 0.00 0.01 0.01 76 999.3
20150425102641 48 316 2.0 3.0 0.00 0.01 0.01 75 999.4
20150425102541 48 324 1.0 3.0 0.00 0.01 0.01 75 999.6
20150425102442 48 335 1.0 3.0 0.00 0.01 0.01 76 999.6
20150425102342 48 317 0.0 3.0 0.00 0.01 0.01 75 999.6
20150425102241 48 311 0.0 3.0 0.00 0.01 0.01 75 999.7
20150425101942 48 312 0.0 3.0 0.00 0.01 0.01 75 999.6
20150425101742 49 307 0.0 3.0 0.00 0.01 0.01 74 999.4
20150425101641 49 312 0.0 3.0 0.00 0.01 0.01 75 999.7
20150425101542 49 314 1.0 3.0 0.00 0.01 0.01 75 999.5
20150425101441 49 309 0.0 3.0 0.00 0.01 0.01 76 999.5
20150425101242 48 330 1.0 3.0 0.00 0.01 0.01 77 999.6
20150425101141 48 334 0.0 2.0 0.00 0.01 0.01 77 999.6
20150425101041 48 340 0.0 2.0 0.00 0.01 0.01 77 999.6
20150425100941 48 347 0.0 2.0 0.00 0.01 0.01 78 999.6
20150425100642 48 1 0.0 2.0 0.00 0.01 0.01 78 999.4
20150425100541 48 1 0.0 2.0 0.00 0.01 0.01 78 999.6
20150425100441 48 355 0.0 2.0 0.01 0.01 0.01 78 999.6
20150425100242 48 353 0.0 2.0 0.01 0.01 0.01 78 999.6
20150425100142 48 345 0.0 2.0 0.01 0.01 0.01 78 999.5
20150425095941 48 343 0.0 3.0 0.01 0.01 0.01 78 999.6
20150425095842 48 342 1.0 3.0 0.01 0.01 0.01 77 999.8
20150425095742 48 342 1.0 3.0 0.01 0.01 0.01 78 999.9
20150425095642 48 340 1.0 3.0 0.01 0.01 0.01 78 999.8
20150425095541 48 337 1.0 3.0 0.01 0.01 0.01 78 999.9
20150425095441 48 340 1.0 3.0 0.01 0.01 0.01 78 999.9
20150425095342 48 337 0.0 3.0 0.01 0.01 0.01 78 999.8
20150425095242 48 337 0.0 3.0 0.01 0.01 0.01 78 999.9
20150425095142 48 352 1.0 3.0 0.01 0.01 0.01 78 1000.1
20150425095041 48 354 1.0 3.0 0.01 0.01 0.01 78 999.7
20150425094941 48 355 1.0 2.0 0.01 0.01 0.01 78 999.7
20150425094642 48 1 0.0 1.0 0.01 0.01 0.01 78 1000.0
20150425094541 48 340 0.0 1.0 0.01 0.01 0.01 78 1000.0
20150425094442 48 317 0.0 1.0 0.01 0.01 0.01 77 1000.1
20150425094341 48 334 0.0 3.0 0.01 0.01 0.01 77 1000.2
20150425094142 48 334 0.0 3.0 0.01 0.01 0.01 76 1000.0
20150425093941 48 320 1.0 3.0 0.01 0.01 0.01 75 999.9
20150425093841 48 319 0.0 3.0 0.01 0.01 0.01 73 999.9
20150425093442 49 317 1.0 3.0 0.01 0.01 0.01 70 999.9
20150425093341 49 311 0.0 3.0 0.01 0.01 0.01 70 1000.1
20150425093241 49 311 1.0 3.0 0.01 0.01 0.01 70 1000.4
20150425093141 49 306 1.0 3.0 0.01 0.01 0.01 70 1000.1
20150425093042 49 304 2.0 3.0 0.01 0.01 0.01 71 999.9
20150425092942 48 303 1.0 3.0 0.01 0.01 0.01 71 1000.0
20150425092842 48 299 1.0 3.0 0.01 0.01 0.01 72 1000.1
20150425092641 48 314 1.0 2.0 0.01 0.01 0.01 74 1000.1
20150425092541 48 314 0.0 2.0 0.01 0.01 0.01 74 1000.2
20150425092442 48 314 1.0 2.0 0.01 0.01 0.01 74 1000.2
20150425092141 48 329 0.0 2.0 0.01 0.01 0.01 74 1000.3
20150425092041 48 337 0.0 2.0 0.01 0.01 0.01 74 1000.4
20150425091849 48 11 0.0 2.0 0.01 0.01 0.01 74 1000.4
20150425091742 48 37 1.0 2.0 0.01 0.01 0.01 74 1000.5
20150425091642 48 62 1.0 2.0 0.01 0.01 0.01 74 1000.5
20150425091541 48 71 0.0 2.0 0.01 0.01 0.01 74 1000.7
20150425091441 48 76 1.0 5.0 0.01 0.01 0.01 75 1000.6
20150425091342 48 85 0.0 5.0 0.01 0.01 0.01 74 1000.5
20150425091242 49 88 0.0 5.0 0.01 0.01 0.01 70 1000.7
20150425091141 49 88 0.0 5.0 0.01 0.01 0.01 68 1000.6
20150425091041 49 88 1.0 5.0 0.01 0.01 0.01 69 1000.8
20150425090942 49 90 1.0 5.0 0.01 0.01 0.01 68 1000.9
20150425090541 49 85 1.0 5.0 0.01 0.01 0.01 67 1000.9
20150425090041 50 69 1.0 7.0 0.00 0.00 0.00 67 1001.0
20150425085941 50 68 2.0 7.0 0.00 0.00 0.00 67 1000.9
20150425085742 50 66 2.0 7.0 0.00 0.00 0.00 66 1001.0
20150425085641 50 68 2.0 7.0 0.00 0.00 0.00 66 1000.9
20150425085541 50 68 3.0 7.0 0.00 0.00 0.00 66 1001.1
20150425085441 50 71 2.0 7.0 0.00 0.00 0.00 66 1000.9
20150425085242 50 74 3.0 6.0 0.00 0.00 0.00 66 1001.2
20150425085142 50 77 3.0 6.0 0.00 0.00 0.00 66 1001.2
20150425085041 50 79 3.0 6.0 0.00 0.00 0.00 64 1000.9
20150425084941 50 78 3.0 6.0 0.00 0.00 0.00 64 1001.2
20150425084841 50 82 4.0 6.0 0.00 0.00 0.00 65 1001.1
20150425084742 50 80 3.0 6.0 0.00 0.00 0.00 65 1001.2
20150425084642 50 80 2.0 6.0 0.00 0.00 0.00 65 1001.2
20150425084541 50 77 2.0 6.0 0.00 0.00 0.00 64 1001.1
20150425084341 50 71 3.0 6.0 0.00 0.00 0.00 63 1001.0
20150425084141 50 66 3.0 5.0 0.00 0.00 0.00 63 1000.9
20150425084041 50 61 3.0 5.0 0.00 0.00 0.00 62 1001.1
20150425083841 50 58 3.0 5.0 0.00 0.00 0.00 63 1001.2
20150425083742 50 60 3.0 4.0 0.00 0.00 0.00 63 1001.2
20150425083642 50 61 2.0 4.0 0.00 0.00 0.00 61 1001.1
20150425083541 51 65 2.0 4.0 0.00 0.00 0.00 61 1001.0
20150425083441 50 73 2.0 4.0 0.00 0.00 0.00 61 1000.9
20150425083341 51 72 1.0 4.0 0.00 0.00 0.00 60 1000.9
20150425083041 51 83 1.0 4.0 0.00 0.00 0.00 58 1001.1
20150425082841 51 89 2.0 4.0 0.00 0.00 0.00 57 1001.0
20150425082741 51 90 2.0 4.0 0.00 0.00 0.00 57 1001.4
20150425082642 51 90 3.0 4.0 0.00 0.00 0.00 58 1001.1
20150425082341 51 90 1.0 3.0 0.00 0.00 0.00 57 1001.2
20150425082142 51 90 1.0 3.0 0.00 0.00 0.00 56 1001.5
20150425082041 51 90 1.0 3.0 0.00 0.00 0.00 57 1001.4
20150425081941 51 85 0.0 3.0 0.00 0.00 0.00 58 1001.4
20150425081842 51 78 0.0 3.0 0.00 0.00 0.00 60 1001.5
20150425081742 51 69 0.0 3.0 0.00 0.00 0.00 60 1001.6
20150425081641 51 67 1.0 3.0 0.00 0.00 0.00 60 1001.5
20150425081541 51 67 2.0 3.0 0.00 0.00 0.00 60 1001.6
20150425081441 51 65 2.0 3.0 0.00 0.00 0.00 58 1001.4
20150425081142 52 65 1.0 3.0 0.00 0.00 0.00 57 1001.4
20150425080941 52 73 1.0 3.0 0.00 0.00 0.00 54 1001.1
20150425080841 52 80 1.0 3.0 0.00 0.00 0.00 53 1001.3
20150425080742 52 88 1.0 3.0 0.00 0.00 0.00 54 1001.3
20150425080642 51 90 1.0 3.0 0.00 0.00 0.00 61 1001.6
20150425080541 51 90 1.0 3.0 0.00 0.00 0.00 61 1001.7
20150425080342 51 90 1.0 3.0 0.00 0.00 0.00 61 1001.5
20150425080242 51 89 1.0 3.0 0.00 0.00 0.00 61 1001.6
20150425080141 51 86 1.0 3.0 0.00 0.00 0.00 61 1001.6
20150425080041 51 84 1.0 3.0 0.00 0.00 0.00 61 1001.6
20150425075941 51 83 1.0 3.0 0.00 0.00 0.00 61 1001.4
20150425075841 51 79 2.0 3.0 0.00 0.00 0.00 63 1001.7
20150425075742 50 75 2.0 3.0 0.00 0.00 0.00 62 1001.4
20150425075641 51 68 1.0 3.0 0.00 0.00 0.00 59 1001.4
20150425075441 52 17 1.0 2.0 0.00 0.00 0.00 51 1001.4
20150425075342 52 330 0.0 1.0 0.00 0.00 0.00 52 1001.5
20150425075242 52 320 1.0 3.0 0.00 0.00 0.00 52 1001.2
20150425075141 52 301 0.0 3.0 0.00 0.00 0.00 48 1001.4
20150425075041 52 313 0.0 3.0 0.00 0.00 0.00 49 1001.4
20150425074941 52 318 0.0 3.0 0.00 0.00 0.00 50 1001.3
20150425074741 52 333 0.0 3.0 0.00 0.00 0.00 50 1001.2
20150425074641 53 336 0.0 3.0 0.00 0.00 0.00 50 1001.2
20150425074541 53 331 0.0 3.0 0.00 0.00 0.00 48 1001.4
20150425074441 53 335 0.0 3.0 0.00 0.00 0.00 47 1001.4
20150425074342 53 332 0.0 3.0 0.00 0.00 0.00 46 1001.3
20150425074242 53 336 1.0 3.0 0.00 0.00 0.00 46 1001.2
20150425073941 53 334 1.0 4.0 0.00 0.00 0.00 45 1001.3
20150425073742 53 331 0.0 4.0 0.00 0.00 0.00 45 1001.5
20150425073642 53 331 1.0 4.0 0.00 0.00 0.00 45 1001.3
20150425073541 53 337 1.0 4.0 0.00 0.00 0.00 45 1001.2
20150425073441 53 336 2.0 4.0 0.00 0.00 0.00 45 1001.2
20150425073341 53 343 0.0 4.0 0.00 0.00 0.00 45 1001.3
20150425073142 53 351 2.0 4.0 0.00 0.00 0.00 46 1001.5
20150425073041 53 345 1.0 3.0 0.00 0.00 0.00 46 1001.6
20150425072841 53 339 1.0 3.0 0.00 0.00 0.00 47 1001.4
20150425072742 53 324 1.0 3.0 0.00 0.00 0.00 48 1001.5
20150425072642 53 321 1.0 3.0 0.00 0.00 0.00 48 1001.2
20150425072541 53 316 0.0 5.0 0.00 0.00 0.00 48 1001.3
20150425071941 53 318 1.0 5.0 0.00 0.00 0.00 45 1000.9
20150425071841 53 324 2.0 5.0 0.00 0.00 0.00 45 1001.0
20150425071741 53 323 2.0 5.0 0.00 0.00 0.00 45 1000.9
20150425071341 53 304 1.0 4.0 0.00 0.00 0.00 44 1001.0
20150425071142 53 289 2.0 3.0 0.00 0.00 0.00 45 1000.9
20150425071042 53 291 1.0 2.0 0.00 0.00 0.00 45 1001.0
20150425070942 53 286 1.0 2.0 0.00 0.00 0.00 46 1001.1
20150425070542 53 291 1.0 2.0 0.00 0.00 0.00 45 1001.4
20150425070341 53 341 1.0 3.0 0.00 0.00 0.00 45 1001.3
20150425070242 53 1 0.0 3.0 0.00 0.00 0.00 46 1001.5
20150425070142 53 348 0.0 5.0 0.00 0.00 0.00 46 1001.5
20150425065942 53 338 0.0 5.0 0.00 0.00 0.00 46 1001.4
20150425065841 53 333 0.0 5.0 0.00 0.00 0.00 47 1001.5
20150425065441 53 336 1.0 5.0 0.00 0.00 0.00 45 1001.3
20150425065242 53 330 3.0 5.0 0.00 0.00 0.00 46 1001.3
20150425064642 53 327 1.0 3.0 0.00 0.00 0.00 49 1001.6
20150425064542 53 323 1.0 3.0 0.00 0.00 0.00 50 1001.6
20150425064441 53 324 0.0 3.0 0.00 0.00 0.00 50 1001.5
20150425064341 53 331 0.0 3.0 0.00 0.00 0.00 52 1001.5
20150425064241 53 336 0.0 3.0 0.00 0.00 0.00 51 1001.5
20150425064042 53 322 1.0 4.0 0.00 0.00 0.00 51 1001.4
20150425063641 53 306 1.0 4.0 0.00 0.00 0.00 51 1001.8
20150425063542 53 305 0.0 4.0 0.00 0.00 0.00 51 1001.7
20150425063341 53 301 0.0 4.0 0.00 0.00 0.00 51 1001.7
20150425063141 52 306 1.0 5.0 0.00 0.00 0.00 52 1001.6
20150425063042 53 307 1.0 5.0 0.00 0.00 0.00 48 1001.6
20150425062841 53 320 1.0 5.0 0.00 0.00 0.00 48 1001.5
20150425062741 53 326 1.0 5.0 0.00 0.00 0.00 48 1001.6
20150425062541 53 335 2.0 5.0 0.00 0.00 0.00 45 1001.6
20150425062442 53 339 1.0 5.0 0.00 0.00 0.00 45 1001.7
20150425062241 53 333 3.0 5.0 0.00 0.00 0.00 45 1001.4
20150425062141 53 336 3.0 5.0 0.00 0.00 0.00 45 1001.7
20150425061842 54 338 2.0 5.0 0.00 0.00 0.00 43 1001.3
20150425061641 54 330 3.0 5.0 0.00 0.00 0.00 43 1001.5
20150425061541 54 321 1.0 3.0 0.00 0.00 0.00 43 1001.4
20150425061442 54 311 2.0 3.0 0.00 0.00 0.00 43 1001.5
20150425061342 54 304 1.0 3.0 0.00 0.00 0.00 43 1001.5
20150425061141 54 292 1.0 3.0 0.00 0.00 0.00 43 1001.5
20150425061041 54 286 1.0 3.0 0.00 0.00 0.00 43 1001.6
20150425060941 54 278 1.0 3.0 0.00 0.00 0.00 43 1001.6
20150425060842 54 275 1.0 3.0 0.00 0.00 0.00 42 1001.8
20150425060742 54 271 1.0 3.0 0.00 0.00 0.00 42 1001.8
20150425060641 54 270 1.0 3.0 0.00 0.00 0.00 45 1001.9
20150425060541 54 270 1.0 3.0 0.00 0.00 0.00 45 1001.8
20150425060442 54 278 1.0 3.0 0.00 0.00 0.00 45 1001.8
20150425060342 54 278 1.0 3.0 0.00 0.00 0.00 45 1001.6
20150425060241 54 280 1.0 3.0 0.00 0.00 0.00 45 1001.6
20150425060041 54 307 1.0 3.0 0.00 0.00 0.00 45 1001.6
20150425055741 54 29 1.0 3.0 0.00 0.00 0.00 43 1001.7
20150425055641 54 19 1.0 3.0 0.00 0.00 0.00 43 1001.6
20150425055541 54 11 1.0 3.0 0.00 0.00 0.00 43 1001.6
20150425055242 54 19 2.0 3.0 0.00 0.00 0.00 44 1001.9
20150425055141 54 31 1.0 3.0 0.00 0.00 0.00 43 1001.8
20150425055041 54 11 1.0 3.0 0.00 0.00 0.00 44 1001.7
20150425054941 54 342 0.0 3.0 0.00 0.00 0.00 44 1001.6
20150425054842 54 334 1.0 3.0 0.00 0.00 0.00 43 1001.8
20150425054741 54 337 1.0 5.0 0.00 0.00 0.00 42 1001.7
20150425054641 54 340 1.0 5.0 0.00 0.00 0.00 43 1001.6
20150425054441 54 339 0.0 5.0 0.00 0.00 0.00 43 1001.9
20150425054341 54 335 0.0 5.0 0.00 0.00 0.00 42 1002.0
20150425054242 54 332 0.0 5.0 0.00 0.00 0.00 43 1001.7
20150425054142 54 342 0.0 5.0 0.00 0.00 0.00 42 1001.8
20150425054041 54 338 1.0 5.0 0.00 0.00 0.00 42 1001.9
20150425053841 54 329 3.0 5.0 0.00 0.00 0.00 42 1001.7
20150425053642 54 310 1.0 5.0 0.00 0.00 0.00 42 1001.7
20150425053541 54 309 1.0 5.0 0.00 0.00 0.00 42 1001.7
20150425053441 54 307 1.0 5.0 0.00 0.00 0.00 42 1001.8
20150425053341 54 304 1.0 5.0 0.00 0.00 0.00 42 1001.8
20150425053042 54 288 1.0 5.0 0.00 0.00 0.00 41 1001.7
20150425052941 54 285 1.0 5.0 0.00 0.00 0.00 41 1001.6
20150425052841 54 284 2.0 5.0 0.00 0.00 0.00 42 1001.6
20150425052642 54 285 1.0 5.0 0.00 0.00 0.00 42 1001.6
20150425052441 54 290 1.0 5.0 0.00 0.00 0.00 41 1001.6
20150425052341 54 287 2.0 5.0 0.00 0.00 0.00 41 1001.7
20150425052242 54 282 2.0 5.0 0.00 0.00 0.00 41 1001.6
20150425052041 54 288 1.0 5.0 0.00 0.00 0.00 41 1001.7
20150425051941 54 301 3.0 5.0 0.00 0.00 0.00 41 1001.8
20150425051841 54 310 2.0 5.0 0.00 0.00 0.00 41 1001.7
20150425051741 54 307 2.0 5.0 0.00 0.00 0.00 41 1001.7
20150425051642 54 317 3.0 5.0 0.00 0.00 0.00 41 1001.8
20150425051441 54 305 2.0 5.0 0.00 0.00 0.00 41 1001.8
20150425051242 54 318 2.0 5.0 0.00 0.00 0.00 41 1001.8
20150425051142 54 322 3.0 5.0 0.00 0.00 0.00 41 1001.8
20150425051041 54 321 3.0 5.0 0.00 0.00 0.00 41 1001.8
20150425050841 54 321 1.0 3.0 0.00 0.00 0.00 41 1001.7
20150425050642 54 325 0.0 3.0 0.00 0.00 0.00 40 1001.6
20150425050541 54 332 1.0 3.0 0.00 0.00 0.00 40 1001.9
20150425050441 54 329 1.0 3.0 0.00 0.00 0.00 40 1002.0
20150425050341 54 322 2.0 3.0 0.00 0.00 0.00 40 1002.0
20150425050142 54 317 1.0 3.0 0.00 0.00 0.00 41 1001.9
20150425050041 54 324 1.0 3.0 0.00 0.00 0.00 41 1001.9
20150425045841 54 312 0.0 3.0 0.00 0.00 0.00 41 1002.0
20150425045742 54 315 1.0 3.0 0.00 0.00 0.00 41 1002.0
20150425045641 54 306 2.0 3.0 0.00 0.00 0.00 42 1001.9
20150425045541 54 301 1.0 3.0 0.00 0.00 0.00 42 1001.8
20150425045441 54 305 1.0 3.0 0.00 0.00 0.00 43 1002.0
20150425045141 54 324 1.0 3.0 0.00 0.00 0.00 43 1001.9
20150425045042 54 318 1.0 3.0 0.00 0.00 0.00 44 1002.1
20150425044841 54 329 1.0 3.0 0.00 0.00 0.00 43 1001.9
20150425044742 54 324 2.0 3.0 0.00 0.00 0.00 44 1001.7
20150425044641 54 331 1.0 3.0 0.00 0.00 0.00 44 1001.7
20150425044541 54 335 1.0 3.0 0.00 0.00 0.00 44 1001.6
20150425044241 54 318 0.0 3.0 0.00 0.00 0.00 46 1001.8
20150425044042 54 323 1.0 3.0 0.00 0.00 0.00 48 1001.7
20150425043941 53 309 1.0 3.0 0.00 0.00 0.00 51 1001.6
20150425043841 53 270 1.0 3.0 0.00 0.00 0.00 53 1001.6
20150425043741 53 270 0.0 3.0 0.00 0.00 0.00 54 1001.8
20150425043642 53 270 0.0 3.0 0.00 0.00 0.00 54 1001.8
20150425043542 53 271 0.0 3.0 0.00 0.00 0.00 54 1001.8
20150425043441 53 275 0.0 4.0 0.00 0.00 0.00 54 1001.9
20150425043241 53 278 0.0 4.0 0.00 0.00 0.00 54 1001.9
20150425043142 53 285 0.0 4.0 0.00 0.00 0.00 54 1001.9
20150425043041 53 283 1.0 4.0 0.00 0.00 0.00 54 1002.1
20150425042941 53 287 1.0 4.0 0.00 0.00 0.00 53 1002.0
20150425042741 53 297 1.0 4.0 0.00 0.00 0.00 53 1002.1
20150425042642 53 304 1.0 4.0 0.00 0.00 0.00 53 1002.1
20150425042542 53 311 1.0 4.0 0.00 0.00 0.00 52 1001.8
20150425042441 53 313 2.0 4.0 0.00 0.00 0.00 52 1001.8
20150425042341 53 317 3.0 3.0 0.00 0.00 0.00 51 1001.8
20150425042241 53 319 1.0 3.0 0.00 0.00 0.00 50 1001.9
20150425042142 53 314 1.0 3.0 0.00 0.00 0.00 49 1001.9
20150425042041 53 316 1.0 3.0 0.00 0.00 0.00 49 1001.9
20150425041941 54 316 1.0 3.0 0.00 0.00 0.00 47 1002.1
20150425041841 54 317 1.0 3.0 0.00 0.00 0.00 45 1002.1
20150425041542 54 320 1.0 3.0 0.00 0.00 0.00 43 1002.3
20150425041142 55 347 0.0 2.0 0.00 0.00 0.00 41 1002.5
20150425041041 54 354 1.0 2.0 0.00 0.00 0.00 42 1002.4
20150425040941 54 1 0.0 1.0 0.00 0.00 0.00 42 1002.6
20150425040741 55 5 1.0 2.0 0.00 0.00 0.00 42 1002.4
20150425040642 54 7 0.0 2.0 0.00 0.00 0.00 42 1002.4
20150425040341 54 32 0.0 3.0 0.00 0.00 0.00 42 1002.6
20150425040241 54 35 0.0 3.0 0.00 0.00 0.00 42 1002.6
20150425035941 54 49 0.0 3.0 0.00 0.00 0.00 42 1002.5
20150425035841 54 60 0.0 3.0 0.00 0.00 0.00 43 1002.3
20150425035741 54 53 1.0 3.0 0.00 0.00 0.00 43 1002.7
20150425035641 55 65 1.0 3.0 0.00 0.00 0.00 43 1002.6
20150425035542 55 56 1.0 3.0 0.00 0.00 0.00 43 1002.7
20150425035441 55 351 1.0 2.0 0.00 0.00 0.00 41 1002.8
20150425035341 55 317 0.0 2.0 0.00 0.00 0.00 41 1002.8
20150425035241 55 314 0.0 2.0 0.00 0.00 0.00 41 1002.8
20150425035141 55 314 0.0 2.0 0.00 0.00 0.00 41 1003.0
20150425034841 54 322 0.0 4.0 0.00 0.00 0.00 42 1002.7
20150425034241 55 43 1.0 5.0 0.00 0.00 0.00 43 1002.6
20150425034141 55 58 1.0 5.0 0.00 0.00 0.00 43 1002.8
20150425034041 55 64 1.0 5.0 0.00 0.00 0.00 43 1002.7
20150425033942 54 68 1.0 5.0 0.00 0.00 0.00 43 1002.7
20150425033841 55 59 2.0 5.0 0.00 0.00 0.00 43 1002.6
20150425033741 55 50 2.0 5.0 0.00 0.00 0.00 43 1002.5
20150425033541 55 46 2.0 3.0 0.00 0.00 0.00 43 1002.6
20150425033442 55 37 2.0 3.0 0.00 0.00 0.00 43 1002.6
20150425033342 55 7 2.0 3.0 0.00 0.00 0.00 43 1002.8
20150425033241 55 20 1.0 3.0 0.00 0.00 0.00 43 1002.7
20150425033141 55 348 1.0 3.0 0.00 0.00 0.00 43 1003.1
20150425033042 55 335 0.0 2.0 0.00 0.00 0.00 42 1003.1
20150425032942 55 328 0.0 2.0 0.00 0.00 0.00 42 1003.1
20150425032841 55 330 1.0 2.0 0.00 0.00 0.00 42 1003.1
20150425032741 55 333 0.0 2.0 0.00 0.00 0.00 42 1003.2
20150425032641 55 342 0.0 2.0 0.00 0.00 0.00 42 1003.2
20150425032441 55 330 0.0 2.0 0.00 0.00 0.00 43 1003.1
20150425032241 55 330 1.0 1.0 0.00 0.00 0.00 44 1003.2
20150425032142 55 345 1.0 1.0 0.00 0.00 0.00 45 1003.1
20150425032041 55 335 0.0 1.0 0.00 0.00 0.00 45 1003.3
20150425031941 55 331 0.0 1.0 0.00 0.00 0.00 45 1003.3
20150425031741 55 314 0.0 1.0 0.00 0.00 0.00 45 1003.2
20150425031641 55 313 0.0 1.0 0.00 0.00 0.00 45 1003.1
20150425031542 55 315 0.0 1.0 0.00 0.00 0.00 45 1003.1
20150425031442 55 329 0.0 2.0 0.00 0.00 0.00 45 1003.2
20150425031341 55 319 0.0 2.0 0.00 0.00 0.00 45 1003.2
20150425031141 55 316 0.0 2.0 0.00 0.00 0.00 45 1003.4
20150425030941 55 319 0.0 2.0 0.00 0.00 0.00 44 1003.2
20150425030841 55 322 0.0 2.0 0.00 0.00 0.00 43 1003.2
20150425030641 55 310 0.0 2.0 0.00 0.00 0.00 43 1003.1
20150425030542 55 297 0.0 2.0 0.00 0.00 0.00 43 1003.1
20150425030441 55 289 1.0 2.0 0.00 0.00 0.00 43 1003.1
20150425030341 55 282 0.0 2.0 0.00 0.00 0.00 43 1002.9
20150425030241 55 282 1.0 2.0 0.00 0.00 0.00 43 1003.1
20150425030042 55 270 0.0 2.0 0.00 0.00 0.00 42 1003.2
20150425025941 55 277 0.0 2.0 0.00 0.00 0.00 43 1003.1
20150425025841 55 281 0.0 2.0 0.00 0.00 0.00 43 1003.2
20150425025541 55 292 1.0 2.0 0.00 0.00 0.00 42 1003.2
20150425025342 55 307 0.0 1.0 0.00 0.00 0.00 42 1003.5
20150425025241 55 310 0.0 3.0 0.00 0.00 0.00 42 1003.3
20150425024841 55 340 0.0 3.0 0.00 0.00 0.00 42 1003.3